Location: Hope
(40.9110°N, 74.9680°W)
Time: 05:08:35
(UTC-04:00)

Tiangong 2 - Visible Passes

Search period start: 22 July 2018 00:00
Search period end: 01 August 2018 00:00
Orbit: 386 x 394 km, 42.8° (Epoch: 22 July)

Date Brightness Start Highest point End Pass type
(mag) Time Alt. Az. Time Alt. Az. Time Alt. Az.
22 Jul 1.2 21:19:58 10° WNW 21:23:07 61° SSW 21:25:28 16° ESE visible
23 Jul 2.7 21:59:29 10° W 22:02:02 22° SSW 22:02:33 21° SSW visible
24 Jul 2.1 21:01:29 10° W 21:04:27 35° SSW 21:07:21 10° SE visible
25 Jul 3.6 21:41:52 10° WSW 21:43:11 12° SW 21:44:30 10° SSW visible
